Location: Unspecified
(0.0000°N, 0.0000°E)
Time: 18:29:49
(UTC+00:00)

STARLINK 1039 - Pass Details

Date: 21 January 2020
Orbit: 548 x 551 km, 53.0° (Epoch: 17 January)

Event Time Altitude Azimuth Distance (km) Brightness Sun altitude
Rises 04:26:21 0° 191° (S) 2,712 7.3 -24.5°
Reaches altitude 10° 04:28:59 10° 175° (S) 1,817 6.6 -23.9°
Maximum altitude 04:32:10 21° 125° (SE) 1,244 6.2 -23.1°
Drops below altitude 10° 04:35:20 10° 74° (ENE) 1,811 6.9 -22.4°
Sets 04:37:57 0° 58° (ENE) 2,701 7.7 -21.8°
